TimeMDT,TemperatureF,Dew PointF,Humidity,Sea Level PressureIn,VisibilityMPH,Wind Direction,Wind SpeedMPH,Gust SpeedMPH,PrecipitationIn,Events,Conditions,WindDirDegrees,DateUTC
12:53 AM,28.9,21.0,72,29.70,10.0,ESE,25.3,-,N/A,,Mostly Cloudy,110,2013-03-21 06:53:00
1:53 AM,28.0,21.0,75,29.70,10.0,ESE,25.3,32.2,N/A,,Overcast,110,2013-03-21 07:53:00
2:53 AM,26.1,19.0,75,29.69,10.0,ESE,23.0,32.2,N/A,,Overcast,110,2013-03-21 08:53:00
3:53 AM,27.0,19.0,72,29.73,10.0,ESE,17.3,-,0.01,,Overcast,110,2013-03-21 09:53:00
4:53 AM,26.1,18.0,71,29.69,10.0,East,23.0,28.8,N/A,,Overcast,100,2013-03-21 10:53:00
5:53 AM,26.1,18.0,71,29.71,10.0,ESE,20.7,-,0.00,,Overcast,110,2013-03-21 11:53:00
6:53 AM,25.0,17.1,72,29.76,10.0,East,16.1,-,N/A,,Overcast,100,2013-03-21 12:53:00
7:53 AM,25.0,17.1,72,29.76,10.0,East,15.0,-,N/A,,Overcast,100,2013-03-21 13:53:00
8:29 AM,24.8,17.6,74,29.68,2.5,ESE,15.0,-,0.00,Snow,Light Snow,110,2013-03-21 14:29:00
8:31 AM,24.8,17.6,74,29.68,1.2,ESE,16.1,-,0.00,Snow,Light Snow,110,2013-03-21 14:31:00
8:37 AM,24.8,19.4,80,29.69,0.2,ESE,16.1,-,0.00,Snow,Heavy Snow,110,2013-03-21 14:37:00
8:53 AM,24.1,19.9,84,29.78,0.2,East,11.5,-,0.03,Fog-Snow,Snow,100,2013-03-21 14:53:00
9:01 AM,24.8,19.4,80,29.69,0.5,ESE,12.7,-,0.01,Fog-Snow,Light Snow,110,2013-03-21 15:01:00
9:24 AM,24.8,19.4,80,29.69,1.0,ESE,13.8,-,0.03,Snow,Light Snow,110,2013-03-21 15:24:00
9:33 AM,24.8,19.4,80,29.69,2.0,ESE,16.1,-,0.03,Snow,Light Snow,110,2013-03-21 15:33:00
9:44 AM,24.8,17.6,74,29.69,3.0,ESE,16.1,-,0.03,Snow,Light Snow,110,2013-03-21 15:44:00
9:49 AM,24.8,19.4,80,29.69,1.8,ESE,16.1,-,0.03,Snow,Light Snow,110,2013-03-21 15:49:00
9:53 AM,24.1,19.9,84,29.78,1.0,ESE,16.1,-,0.03,Snow,Light Snow,110,2013-03-21 15:53:00
10:00 AM,24.8,21.2,86,29.69,0.5,ESE,17.3,-,0.00,Fog-Snow,Snow,110,2013-03-21 16:00:00
10:33 AM,24.8,21.2,86,29.71,1.0,East,12.7,-,0.02,Snow,Light Snow,100,2013-03-21 16:33:00
10:48 AM,24.8,21.2,86,29.72,0.5,East,13.8,-,0.03,Fog-Snow,Snow,100,2013-03-21 16:48:00
10:50 AM,24.8,21.2,86,29.72,0.2,East,12.7,-,0.03,Fog-Snow,Heavy Snow,100,2013-03-21 16:50:00
10:53 AM,24.1,21.0,88,29.81,0.2,East,11.5,-,0.03,Fog-Snow,Heavy Snow,100,2013-03-21 16:53:00
11:06 AM,24.8,21.2,86,29.73,0.5,East,11.5,-,0.01,Fog-Snow,Snow,100,2013-03-21 17:06:00
11:27 AM,24.8,21.2,86,29.74,0.5,East,11.5,-,0.03,Fog-Snow,Snow,100,2013-03-21 17:27:00
11:37 AM,24.8,21.2,86,29.73,0.8,East,11.5,-,0.03,Snow,Light Snow,100,2013-03-21 17:37:00
11:48 AM,24.8,21.2,86,29.73,1.0,East,12.7,-,0.04,Snow,Light Snow,100,2013-03-21 17:48:00
11:53 AM,24.1,21.0,88,29.83,1.2,East,11.5,-,0.04,Snow,Light Snow,100,2013-03-21 17:53:00
11:55 AM,24.8,21.2,86,29.74,1.5,ESE,11.5,-,0.00,Snow,Light Snow,110,2013-03-21 17:55:00
12:07 PM,24.8,21.2,86,29.74,2.0,ESE,11.5,-,0.00,Snow,Light Snow,110,2013-03-21 18:07:00
12:14 PM,24.8,21.2,86,29.74,1.8,East,12.7,-,0.00,Snow,Light Snow,100,2013-03-21 18:14:00
12:24 PM,24.8,21.2,86,29.74,1.0,ESE,13.8,-,0.00,Snow,Light Snow,110,2013-03-21 18:24:00
12:33 PM,24.8,21.2,86,29.74,0.5,East,15.0,-,0.00,Fog-Snow,Snow,100,2013-03-21 18:33:00
12:53 PM,25.0,21.0,85,29.83,0.5,ESE,18.4,-,0.01,Fog-Snow,Snow,110,2013-03-21 18:53:00
1:04 PM,24.8,21.2,86,29.74,1.5,East,16.1,-,0.01,Snow,Light Snow,100,2013-03-21 19:04:00
1:13 PM,24.8,21.2,86,29.73,2.5,East,18.4,-,0.01,Snow,Light Snow,100,2013-03-21 19:13:00
1:22 PM,26.6,21.2,80,29.73,3.0,East,17.3,-,0.01,Snow,Light Snow,100,2013-03-21 19:22:00
1:53 PM,26.1,21.0,81,29.83,10.0,East,17.3,-,0.01,,Mostly Cloudy,100,2013-03-21 19:53:00
2:53 PM,27.0,21.9,81,29.83,10.0,ESE,17.3,-,N/A,,Mostly Cloudy,110,2013-03-21 20:53:00
3:53 PM,27.0,21.9,81,29.85,10.0,East,12.7,-,N/A,,Overcast,100,2013-03-21 21:53:00
4:24 PM,26.6,21.2,80,29.77,10.0,ESE,13.8,-,N/A,,Overcast,110,2013-03-21 22:24:00
4:53 PM,27.0,23.0,85,29.86,10.0,ESE,15.0,-,N/A,,Overcast,110,2013-03-21 22:53:00
5:27 PM,26.6,23.0,86,29.77,10.0,ESE,13.8,-,N/A,,Mostly Cloudy,110,2013-03-21 23:27:00
5:53 PM,27.0,23.0,85,29.87,10.0,ESE,12.7,-,N/A,,Overcast,110,2013-03-21 23:53:00
6:53 PM,27.0,24.1,89,29.89,10.0,East,11.5,-,N/A,,Overcast,100,2013-03-22 00:53:00
7:53 PM,27.0,24.1,89,29.91,10.0,East,10.4,-,N/A,,Overcast,100,2013-03-22 01:53:00
8:53 PM,26.1,24.1,92,29.93,10.0,East,11.5,-,N/A,,Overcast,100,2013-03-22 02:53:00
9:13 PM,26.6,24.8,93,29.83,10.0,East,11.5,-,N/A,,Overcast,100,2013-03-22 03:13:00
9:53 PM,26.1,23.0,88,29.95,10.0,East,9.2,-,N/A,,Overcast,90,2013-03-22 03:53:00
10:53 PM,26.1,23.0,88,29.95,10.0,ESE,11.5,-,N/A,,Overcast,110,2013-03-22 04:53:00
11:15 PM,26.6,23.0,86,29.84,10.0,ESE,15.0,-,N/A,,Overcast,110,2013-03-22 05:15:00
11:28 PM,26.6,23.0,86,29.84,10.0,ESE,12.7,-,N/A,,Overcast,110,2013-03-22 05:28:00
11:53 PM,25.0,23.0,92,29.94,10.0,ESE,10.4,-,N/A,,Overcast,110,2013-03-22 05:53:00